STARLINK-34420

导读 | 豆包AI

STARLINK-34420是美国太空探索技术公司(SpaceX)星链(Starlink)星座中的一颗低轨互联网通信卫星,于2025年6月23日成功发射。该卫星属于SpaceX面向全球高速互联网服务打造的卫星星座网络,将运行在近地轨道,为全球用户提供低延迟、高速率的宽带互联网接入服务,支撑地面偏远地区、移动场景等各类互联网应用需求,进一步扩充星链星座的服务覆盖能力与网络容量。

基本信息
目录编号:
64483
目录名称:
STARLINK-34420
国际标识:
2025-133M
轨道中心:
EARTH
卫星名称:
STARLINK-34420
卫星全名:
STARLINK-34420
卫星状态:
在轨 (已飞行310 天)
发射日期:
2025-06-23 UTC
国别 :
美国 (US)
星等 :
--
轨道信息
数据来源 国际轨道数据
星历时间: 2026-04-29T09:03:49+0800
13小时前
查看轨道信息
半长轴: 6853.336km
偏心率: 0.0001003
轨道倾角: 53.159°
近地点辐角 69.022°
升交点赤经 242.496°
平近点角 291.089°
近地点: 474.511km
远地点: 475.887km
周期: 94.105分钟
每日圈数: 15.302055
详细信息
使用方式:
暂无
2D轨道图
3D轨道图
轨道高度分析图
轨道倾角分析图
轨道综合分析图
查看轨道综合分析图